Regional Weather Roundup
Issued by NWS Mobile, AL

Home | Current Version | Previous Version | Text Only | Print | Product List | Glossary On
Versions: 1 2 3 4 5 6 7 8 9 10 11 12 13 14 15 16 17 18 19 20 21 22 23 24 25 26 27 28 29 30 31 32 33 34 35 36 37 38 39 40 41 42 43 44 45 46 47 48 49 50
000
ASUS44 KMOB 290512
RWRMOB
REGIONAL WEATHER ROUNDUP
NATIONAL WEATHER SERVICE MOBILE AL
1200 AM CDT FRI APR 29 2016

NOTE: "FAIR" INDICATES FEW OR NO CLOUDS BELOW 12,000 FEET WITH NO
      SIGNIFICANT WEATHER AND/OR OBSTRUCTIONS TO VISIBILITY.

  * THESE STATIONS ARE PART OF THE UNIVERSITY OF SOUTH ALABAMA
    MESONET AND ARE NOT UNDER NWS OR FAA QUALITY CONTROL.

ALZ061>064-290600-
COASTAL ALABAMA

CITY           SKY/WX    TMP DP  RH WIND       PRES   REMARKS
MOBILE REG APT PTCLDY    66  66 100 CALM      29.98S
BROOKLEY FIELD MOCLDY    67  67 100 E3        29.99S
USA CAMPUS*    NOT AVBL
DOG RIVER*     NOT AVBL


CITY           SKY/WX    TMP DP  RH WIND       PRES   REMARKS
MOUNT VERNON*  NOT AVBL
SARALAND*      NOT AVBL
BAY MINETTE*   NOT AVBL
LOXLEY*        NOT AVBL
ROBERTSDALE*   NOT AVBL
FAIRHOPE*      NOT AVBL
ELBERTA*       NOT AVBL
FOLEY*         NOT AVBL
GRAND BAY*     NOT AVBL
DAUPHIN ISLND* NOT AVBL
BON SCOUR NWR* NOT AVBL
GULF SHORES    CLEAR     64  64 100 CALM      29.98F FOG

$$

ALZ051>060-290600-
INTERIOR SOUTHWEST AND SOUTH CENTRAL ALABAMA

CITY           SKY/WX    TMP DP  RH WIND       PRES   REMARKS
GREENVILLE     CLEAR     69  66  90 CALM      29.97F FOG
EVERGREEN      CLEAR     66  65  96 CALM      29.98F
CASTLEBERRY*   NOT AVBL
ATMORE*        NOT AVBL
DIXIE*         NOT AVBL
ANDALUSIA/OPP  PTCLDY    70  66  87 CALM      29.98S
ANDALUSIA*     NOT AVBL
FLORALA APT    PTCLDY    66  64  93 CALM      30.00S
FLORALA*       NOT AVBL

$$

FLZ001>006-290600-
WESTERN FLORIDA PANHANDLE

CITY           SKY/WX    TMP DP  RH WIND       PRES   REMARKS
PENSACOLA      CLEAR     70  66  87 CALM      29.98F
NAS PENSACOLA  NOT AVBL
MILTON         NOT AVBL
WHTNG S FIELD  PTCLDY    71  68  90 S3        29.98F


CITY           SKY/WX    TMP DP  RH WIND       PRES   REMARKS
WALNUT HILL*   NOT AVBL
JAY*           NOT AVBL
CRESTVIEW      PTCLDY    65  64  97 CALM      29.99F FOG
VALPARAISO     NOT AVBL
DESTIN         PTCLDY    75  71  87 CALM      29.98S

$$

MSZ076-079-290600-
INTERIOR SOUTHEAST MISSISSIPPI

CITY           SKY/WX    TMP DP  RH WIND       PRES   REMARKS
LEAKESVILLE*   NOT AVBL
AGRICOLA*      NOT AVBL

$$

MARINE OBSERVATIONS

STATION/POSITION TIME  TEMP    WIND        PRES    WAVE
                       AIR SEA DIR/SP/G            HT/PER
                 (UTC) (F)     (DEG/KT/KT) (MB)    (FT/S)
PASCAGOULA       0400   71      40/  1/  2 1014.3F
PETIT BOIS ISLND 0400   74     120/  4/  4 1015.0S
GRAND BAY        0300   74     100/  1     1016.0S
KATRINA CUT      0400   74     100/  4       N/A
CEDAR POINT      0400   74      70/  4     1014.6F
E DAUPHIN ISLAND 0500   74     100/  6/  7 1014.7F
MIDDLE BAY LIGHT 0400   74      80/  2     1015.2R
USCG MOBILE BAY  0400   72 75   CALM  /  1 1015.5S
STATE DOCKS      0400   72 72              1014.9S
MEAHER PARK      0400   69        CALM     1014.6S
WEEKS BAY        0300   67                   N/A
FORT MORGAN      0400   73     120/  8/  8 1014.8R
12 S ORANGE BCH  0450   74 73  110/  6/  6 1014.3F   2/ 6
PENSACOLA BAY    0400   78     180/  3/  4 1015.6R
64 S DAUPHIN ISL 0400   74 73  160/  4/  6 1014.6R

$$

SELECTED LOCATIONS ACROSS THE REGION

CITY           SKY/WX    TMP DP  RH WIND       PRES   REMARKS
NEW ORLEANS    PTCLDY    74  69  85 S8        29.93F
GULFPORT       CLEAR     69  67  93 CALM      29.95S
PASCAGOULA AP  CLEAR     64  64 100 CALM      29.96S
PASCAGOULA*    NOT AVBL
HATTIESBURG    MOCLDY    71  67  87 CALM      29.97S
LAUREL         CLEAR     70  64  83 CALM      29.97F
MERIDIAN       CLEAR     68  65  90 S5        29.97R
JACKSON        CLEAR     73  68  84 S7        29.94S
MONTGOMERY     CLEAR     72  68  87 SW3       29.97F
TROY           FOG       67  66  97 CALM      29.99S VSB 1/2
KINSTON*       NOT AVBL
GENEVA*        NOT AVBL
ASHFORD*       NOT AVBL
DOTHAN         CLEAR     68  65  90 CALM      30.02S
PANAMA CITY    PTCLDY    68  66  93 CALM      29.97S

$$




USA.gov is the U.S. government's official web portal to all federal, state and local government web resources and services.